RH
71 73 74 74 74 73 73 74 75 75 77 81 83 84 86 88 91 95 97 92 78 65 64 70 75 80 87 95 99 98 96 92 90 88 86 84 83 81 77 74 70 66
75 76 78 78 77 77 76 75 76 77 77 78 79 82 85 87 90 93 96 100 95 80 65 61 65 71 76 83 92 97 99 98 95 92 90 87 85 85 83 79 76 71
76 79 81 82 81 80 80 78 78 79 79 79 81 83 87 89 91 95 96 98 101 96 82 65 57 63 70 75 83 91 95 98 99 97 96 93 90 88 86 84 81 77
76 80 83 84 84 83 83 82 82 83 83 84 85 86 88 90 92 95 97 98 99 100 95 78 59 57 66 74 79 84 89 95 100 100 99 97 94 92 89 87 85 82
79 84 86 85 85 85 85 85 84 85 86 87 88 89 91 91 93 94 95 97 99 99 100 91 74 62 64 75 82 81 82 88 95 99 100 99 96 93 89 88 86 84
82 87 87 85 85 86 85 85 86 86 87 89 90 91 93 94 96 97 96 96 97 98 100 99 93 82 73 78 86 85 81 81 83 92 99 98 98 95 89 87 85 82
83 90 90 85 85 88 88 85 85 86 86 89 91 92 94 97 98 99 97 96 97 98 98 99 100 99 89 85 83 77 75 78 79 87 96 96 98 98 92 90 87 84
82 87 90 91 88 88 91 88 84 85 86 88 92 94 95 98 100 100 99 98 99 98 98 97 99 101 99 96 86 69 63 71 78 88 96 98 99 99 95 92 91 88
85 88 90 93 89 81 83 85 84 84 85 86 90 94 97 99 100 100 99 100 100 99 98 98 100 100 100 101 97 85 73 69 73 85 95 98 99 100 98 95 93 91
73 86 93 93 91 82 76 77 79 78 78 80 85 90 93 97 99 100 100 100 100 100 100 99 100 100 100 100 100 98 92 82 79 86 92 95 98 100 100 99 97 94
74 82 89 87 86 84 77 73 72 71 71 72 75 79 82 90 98 99 99 100 99 100 101 100 100 100 100 100 100 100 100 95 90 90 90 91 95 97 99 100 100 99
90 85 83 78 75 76 75 74 71 70 70 67 67 73 77 83 95 100 99 101 101 99 100 100 100 100 99 100 100 100 100 100 97 94 91 88 89 91 96 100 100 100
91 85 81 77 73 71 72 73 70 70 71 66 66 75 80 82 92 99 97 98 99 99 101 100 99 100 100 100 100 99 100 100 99 98 96 93 87 83 89 98 100 99
86 85 82 80 77 73 72 72 71 70 72 70 70 79 85 83 87 96 97 98 100 100 100 100 100 100 100 100 100 100 100 100 100 100 100 99 94 84 81 91 98 98
87 86 84 83 82 80 78 78 79 78 77 74 74 82 85 80 82 91 93 94 97 99 100 100 100 100 100 100 101 100 100 100 100 100 100 100 100 91 81 84 94 98
88 87 88 88 88 88 88 89 91 92 90 82 78 85 87 80 83 90 91 92 96 99 100 98 97 97 96 98 101 100 100 100 100 100 100 99 101 99 88 80 88 97
85 86 90 92 92 93 94 97 97 97 98 91 84 89 90 83 85 91 91 95 100 97 91 88 90 94 95 97 98 96 95 97 98 99 100 99 100 101 93 83 87 96
88 91 95 97 97 96 97 100 99 96 99 99 94 96 93 87 91 95 93 95 100 95 86 81 83 87 90 91 89 91 95 95 92 94 98 100 100 99 96 93 94 99
96 98 100 100 100 99 99 101 100 99 99 99 99 99 96 91 93 95 94 96 100 99 93 89 84 79 80 82 82 87 94 93 92 95 98 101 101 99 100 99 99 100
100 100 100 100 100 100 100 99 99 101 100 98 99 99 96 93 92 94 97 99 99 96 92 87 82 77 79 83 83 84 88 92 97 101 99 99 101 100 100 100 100 100
100 100 100 100 100 100 100 98 98 101 100 99 100 99 96 94 93 95 99 98 93 88 84 81 81 85 88 88 85 83 84 88 93 97 99 100 101 100 100 100 100 100
100 100 100 100 100 100 100 99 99 100 100 100 100 99 96 95 96 98 100 97 91 88 86 82 80 83 85 84 83 81 80 84 90 96 100 100 98 99 100 100 100 100
100 100 101 100 100 101 100 100 100 99 98 99 99 98 96 96 97 98 99 97 96 95 92 87 83 83 83 85 86 84 85 92 97 100 100 98 97 99 100 100 100 100
99 99 101 101 100 100 100 100 100 97 95 97 99 97 96 95 96 97 98 98 98 99 97 94 92 91 90 92 94 93 95 99 100 100 100 98 98 100 100 100 100 100
97 98 101 101 100 100 100 100 100 98 97 99 100 99 98 97 97 98 99 99 99 99 99 99 98 96 95 96 97 98 99 100 100 100 100 99 100 100 100 100 100 100
96 100 101 100 100 100 100 100 100 100 99 100 100 100 100 99 97 98 99 99 99 100 100 99 98 98 98 99 99 99 100 100 100 100 100 100 100 100 100 100 100 100
Wind_Speed
29 28 29 29 29 29 27 26 26 25 25 24 23 23 22 21 20 18 19 20 22 25 27 29 30 30 29 26 25 25 26 28 28 29 30 32 33 34 34 35 36 36
29 28 29 29 28 28 27 27 27 26 25 24 24 23 23 22 21 20 20 20 20 22 25 27 28 29 30 30 28 27 27 28 29 29 30 31 32 33 34 35 35 35
29 28 28 28 28 28 27 27 26 26 25 24 23 23 23 23 22 21 20 20 20 20 22 25 27 27 28 29 29 29 29 28 29 30 30 31 32 32 33 34 34 34
29 28 28 28 27 27 27 27 26 25 25 24 23 23 24 24 24 23 21 21 22 21 21 23 26 28 27 28 29 29 30 29 29 29 29 30 31 31 32 31 33 34
30 29 28 28 28 27 26 26 26 25 25 25 25 24 24 24 24 24 23 22 23 22 21 21 24 27 27 27 28 30 31 31 30 29 29 30 30 30 30 30 32 34
31 29 27 28 28 27 26 26 26 26 25 25 25 25 25 24 24 24 24 24 23 22 22 21 22 24 26 27 28 29 31 32 31 30 30 31 31 30 29 30 31 32
33 29 27 28 28 27 26 25 26 25 25 25 25 25 25 25 25 24 24 24 24 24 23 22 22 21 22 25 28 30 31 31 32 31 30 31 31 31 30 31 33 33
33 31 29 28 27 26 24 23 25 25 24 25 25 24 24 24 25 25 24 24 24 24 23 22 22 22 21 21 25 29 31 30 31 31 31 31 31 31 32 32 33 34
34 35 32 28 25 25 24 23 24 24 24 25 25 24 24 25 26 25 25 24 23 23 23 22 21 22 22 21 21 24 27 29 30 30 30 30 31 32 32 33 34 34
39 36 31 26 23 24 25 25 25 25 25 26 26 26 25 25 26 26 25 25 24 24 23 23 22 22 23 22 21 20 21 24 26 28 29 29 30 31 32 33 35 35
38 33 30 27 25 26 26 26 27 27 26 26 27 28 28 26 26 26 25 25 25 24 24 24 24 24 23 23 22 20 18 20 23 26 28 30 31 31 31 32 35 36
32 30 31 31 30 30 30 29 29 28 29 30 31 30 28 25 25 25 25 25 25 25 25 25 25 25 26 25 24 22 21 21 23 25 27 30 31 32 32 32 34 36
30 29 30 30 30 31 31 31 31 32 33 35 33 30 27 24 24 25 25 25 25 25 26 26 27 26 26 26 25 24 24 24 25 26 26 28 30 32 32 32 33 35
29 29 29 29 29 30 30 31 32 33 34 33 31 29 27 25 24 25 25 25 25 26 25 25 26 26 26 26 26 26 26 26 27 27 27 27 30 32 32 31 32 33
28 28 28 27 27 27 27 28 29 29 30 30 28 27 28 27 26 25 25 24 24 24 24 24 25 25 26 27 28 29 29 29 30 29 28 28 29 32 33 32 31 32
29 28 27 26 26 25 25 25 27 27 26 26 27 26 27 28 26 24 24 25 24 23 22 23 24 25 26 27 28 28 28 29 31 30 30 30 31 32 34 33 31 32
29 28 27 27 27 26 26 27 29 28 25 24 25 25 27 27 25 24 26 26 25 24 24 25 26 26 26 27 28 27 27 29 30 30 31 32 33 33 34 33 30 30
29 29 28 28 28 27 27 28 30 30 27 24 24 24 26 26 24 26 27 25 24 24 26 28 29 29 28 28 28 28 27 28 30 31 32 34 36 35 35 34 32 31
29 29 29 29 28 29 30 30 31 30 26 23 23 24 24 24 23 24 25 24 24 25 25 27 29 29 29 29 28 26 25 26 28 30 32 35 38 38 37 37 36 34
29 30 30 30 30 32 33 32 32 29 24 21 21 22 21 21 21 22 22 23 25 27 28 29 29 28 27 26 25 24 24 25 26 28 32 36 39 40 39 38 37 36
31 31 31 32 33 35 33 29 28 28 24 20 19 20 20 21 21 20 21 23 25 26 27 27 27 26 24 23 23 25 26 27 27 29 33 35 38 40 41 40 39 37
32 33 34 35 36 36 32 26 24 24 22 20 19 19 19 19 19 19 20 22 22 21 22 24 25 24 24 24 24 26 27 28 30 32 33 35 37 39 40 39 37 36
34 35 36 37 37 35 29 23 20 19 17 17 18 18 18 19 19 20 20 20 21 21 23 25 27 27 26 25 26 26 27 28 30 31 32 34 35 36 36 34 33 33
37 37 36 37 36 32 25 19 15 14 15 16 17 18 18 19 19 19 20 21 22 23 24 26 28 27 26 26 27 26 27 28 29 29 31 32 32 30 29 28 28 28
38 37 36 36 33 26 21 17 14 13 15 17 18 18 18 19 18 19 20 21 22 23 24 25 27 27 27 28 28 27 26 27 28 29 30 30 27 25 25 25 25 25
38 36 35 33 29 23 19 17 15 16 17 19 20 18 18 19 18 18 20 21 22 24 25 26 27 28 29 29 28 28 27 25 26 28 29 26 24 23 24 24 23 23
Wind_Direction
292 289 287 285 284 283 282 281 279 277 276 275 273 272 269 267 266 265 264 262 259 256 253 251 248 247 247 247 247 245 242 241 242 243 243 245 246 242 237 235 232 229
293 290 286 284 283 282 282 281 280 278 277 275 274 273 270 268 265 261 258 257 258 258 258 256 254 251 248 247 249 250 250 247 244 241 239 239 242 242 241 241 236 231
294 290 287 284 283 282 283 283 281 278 277 276 274 272 270 268 266 263 259 255 254 253 254 256 257 256 254 251 250 250 252 252 251 248 243 241 240 239 242 243 239 234
293 290 288 286 284 283 283 283 281 279 277 276 276 274 272 270 267 266 263 260 259 255 252 252 253 254 254 254 252 250 251 252 254 252 247 246 245 242 242 243 241 238
292 291 290 287 284 283 283 281 280 279 278 276 276 275 273 271 269 267 265 263 262 260 257 254 253 252 251 252 252 251 250 250 252 252 248 248 248 246 244 244 245 244
293 292 291 289 286 283 282 281 280 279 279 278 277 275 273 270 268 266 265 264 261 259 257 256 255 255 252 251 251 251 251 250 251 251 251 253 252 248 244 244 245 245
294 295 293 288 285 282 280 281 282 281 279 279 278 276 273 269 268 266 264 264 262 259 256 253 254 255 254 253 253 253 254 253 252 250 251 254 254 249 245 245 247 245
293 293 292 286 284 284 282 280 282 283 282 280 279 276 274 271 268 266 264 264 262 259 257 255 253 252 251 253 255 256 256 255 254 251 250 251 252 249 247 247 248 249
294 294 291 282 281 287 288 286 284 286 287 285 281 277 274 273 271 267 263 262 260 258 256 255 253 252 250 251 254 257 258 258 257 255 252 251 252 252 251 248 248 251
298 299 292 281 280 285 288 289 287 288 290 288 286 283 279 275 271 268 263 261 261 260 257 255 253 252 251 252 255 256 256 258 258 256 255 254 254 255 254 250 248 251
301 301 297 292 291 289 288 287 286 286 285 284 286 286 282 276 269 266 263 262 262 261 259 258 254 252 252 253 253 252 252 254 254 254 255 255 254 255 256 254 250 251
301 299 296 295 293 289 288 286 285 283 280 282 284 281 278 274 266 263 264 264 264 263 260 258 255 252 252 251 250 249 249 251 253 254 256 257 257 256 255 255 253 253
301 298 296 294 291 289 288 286 285 283 281 282 281 274 270 269 263 260 264 265 265 265 263 261 260 258 256 255 252 250 249 251 254 255 257 261 262 260 257 256 256 256
304 301 299 296 293 291 289 287 287 285 281 280 277 270 267 267 262 261 265 266 263 263 265 265 264 263 263 263 259 254 252 253 255 256 257 262 265 264 261 258 257 258
310 307 304 301 298 296 294 292 290 287 283 278 273 267 265 267 265 263 267 269 267 266 265 264 264 262 260 261 262 259 257 255 257 259 263 267 270 269 266 261 257 257
313 310 307 305 302 299 297 296 294 292 287 279 273 266 264 266 266 264 268 273 275 274 269 264 264 263 259 258 260 261 259 256 258 264 270 273 272 269 268 267 261 257
313 312 310 309 306 301 299 298 297 297 291 283 276 268 264 265 266 267 271 276 279 279 276 273 268 263 260 259 260 262 262 260 261 266 270 272 270 269 271 272 268 262
312 312 311 311 309 306 303 301 300 299 295 287 278 269 265 266 268 270 272 276 278 278 278 276 269 261 260 262 263 264 263 261 262 264 266 267 269 272 274 275 272 265
314 314 313 312 311 309 306 303 302 302 301 293 282 274 270 270 273 274 273 273 274 274 273 270 266 264 265 266 265 262 259 260 262 264 265 266 268 271 273 273 271 265
317 316 315 313 312 311 308 303 302 304 306 297 283 277 276 278 282 280 274 272 272 272 272 269 268 271 272 269 265 261 261 263 264 266 268 268 267 268 269 268 266 262
318 318 315 312 313 315 313 306 304 307 310 303 287 279 280 284 286 281 275 275 276 277 276 273 272 275 275 271 266 263 264 265 266 269 271 269 266 264 264 263 260 256
317 317 315 312 315 319 317 311 310 311 311 306 295 287 284 283 283 279 277 280 282 283 282 279 277 278 278 275 270 266 266 266 268 270 270 269 266 262 260 258 253 250
316 316 315 315 319 321 316 312 316 314 307 303 298 292 286 281 280 279 278 283 287 287 285 282 280 280 278 276 272 269 269 268 269 270 268 266 264 259 257 254 250 247
316 318 319 319 321 322 317 315 317 311 304 301 295 291 288 283 282 281 280 283 284 283 284 282 281 281 278 276 273 271 270 268 268 268 265 261 258 254 252 251 248 247
319 323 324 323 324 326 325 320 312 307 307 304 297 294 292 288 284 281 279 280 282 284 287 287 285 284 282 279 276 272 270 266 264 262 258 252 250 247 244 242 243 244
327 330 329 328 330 334 333 321 309 304 305 306 304 299 292 287 285 283 282 284 287 290 291 288 285 284 281 278 274 269 267 263 255 251 247 242 241 240 236 234 236 234